TimeCDT,TemperatureF,Dew PointF,Humidity,Sea Level PressureIn,VisibilityMPH,Wind Direction,Wind SpeedMPH,Gust SpeedMPH,PrecipitationIn,Events,Conditions,WindDirDegrees,DateUTC
12:15 AM,49.5,44.2,82,29.93,10.0,South,3.5,-,N/A,,Clear,190,2013-09-30 05:15:00
12:35 AM,44.6,44.4,99,29.93,10.0,Calm,Calm,-,N/A,,Clear,0,2013-09-30 05:35:00
12:55 AM,44.1,44.1,100,29.93,10.0,Calm,Calm,-,N/A,,Clear,0,2013-09-30 05:55:00
1:15 AM,44.2,44.1,99,29.92,10.0,Calm,Calm,-,N/A,,Clear,0,2013-09-30 06:15:00
1:35 AM,43.0,43.0,100,29.92,10.0,Calm,Calm,-,N/A,,Clear,0,2013-09-30 06:35:00
1:55 AM,41.9,41.9,100,29.92,10.0,South,3.5,-,N/A,,Clear,170,2013-09-30 06:55:00
2:15 AM,41.9,41.9,100,29.91,10.0,Calm,Calm,-,N/A,,Clear,0,2013-09-30 07:15:00
2:35 AM,41.5,41.5,100,29.91,10.0,Calm,Calm,-,N/A,,Clear,0,2013-09-30 07:35:00
2:55 AM,41.5,41.5,100,29.91,10.0,Calm,Calm,-,N/A,,Clear,0,2013-09-30 07:55:00
3:15 AM,43.5,43.5,100,29.90,10.0,SSE,4.6,-,N/A,,Clear,160,2013-09-30 08:15:00
3:35 AM,41.9,41.9,100,29.91,10.0,Calm,Calm,-,N/A,,Clear,0,2013-09-30 08:35:00
3:55 AM,41.0,41.0,100,29.90,10.0,Calm,Calm,-,N/A,,Clear,0,2013-09-30 08:55:00
4:15 AM,42.4,42.4,100,29.91,10.0,South,4.6,-,N/A,,Clear,180,2013-09-30 09:15:00
4:35 AM,41.9,41.9,100,29.90,10.0,SSE,4.6,-,N/A,,Clear,160,2013-09-30 09:35:00
4:55 AM,48.2,46.0,92,29.89,10.0,SSE,3.5,-,N/A,,Clear,160,2013-09-30 09:55:00
5:15 AM,48.0,46.2,93,29.89,10.0,South,3.5,-,N/A,,Clear,190,2013-09-30 10:15:00
5:35 AM,48.7,46.0,90,29.88,10.0,SSE,3.5,-,N/A,,Clear,150,2013-09-30 10:35:00
5:55 AM,48.7,45.7,89,29.88,10.0,SSE,3.5,-,N/A,,Clear,150,2013-09-30 10:55:00
6:15 AM,49.3,46.0,89,29.88,10.0,South,3.5,-,N/A,,Clear,190,2013-09-30 11:15:00
6:35 AM,49.5,46.4,89,29.88,10.0,South,3.5,-,N/A,,Clear,170,2013-09-30 11:35:00
6:55 AM,48.7,45.9,90,29.88,10.0,Calm,Calm,-,N/A,,Clear,0,2013-09-30 11:55:00
7:15 AM,48.6,45.7,90,29.88,10.0,Calm,Calm,-,N/A,,Clear,0,2013-09-30 12:15:00
7:35 AM,48.2,45.1,89,29.87,10.0,South,3.5,-,N/A,,Clear,170,2013-09-30 12:35:00
7:55 AM,49.6,43.5,79,29.86,10.0,South,4.6,-,N/A,,Clear,170,2013-09-30 12:55:00
8:15 AM,52.2,44.8,76,29.86,10.0,SSE,4.6,-,N/A,,Clear,160,2013-09-30 13:15:00
8:35 AM,55.4,46.2,71,29.86,10.0,Calm,Calm,-,N/A,,Clear,0,2013-09-30 13:35:00
8:55 AM,58.3,45.7,63,29.86,10.0,South,9.2,-,N/A,,Clear,190,2013-09-30 13:55:00
9:15 AM,60.3,46.2,60,29.86,10.0,South,8.1,-,N/A,,Clear,180,2013-09-30 14:15:00
9:35 AM,61.7,46.6,58,29.86,10.0,South,10.4,-,N/A,,Clear,170,2013-09-30 14:35:00
9:55 AM,62.8,47.3,57,29.86,10.0,SSW,10.4,-,N/A,,Clear,210,2013-09-30 14:55:00
10:15 AM,63.3,47.7,57,29.86,10.0,South,10.4,16.1,N/A,,Clear,180,2013-09-30 15:15:00
10:35 AM,64.9,48.0,54,29.85,10.0,South,10.4,18.4,N/A,,Clear,190,2013-09-30 15:35:00
10:55 AM,65.8,47.1,51,29.84,10.0,South,13.8,26.5,N/A,,Clear,190,2013-09-30 15:55:00
11:15 AM,67.6,46.9,47,29.84,10.0,South,12.7,21.9,N/A,,Clear,190,2013-09-30 16:15:00
11:35 AM,68.0,46.8,47,29.83,10.0,SSW,10.4,25.3,N/A,,Clear,200,2013-09-30 16:35:00
11:55 AM,69.3,45.1,42,29.83,10.0,SW,15.0,21.9,N/A,,Clear,220,2013-09-30 16:55:00
12:15 PM,69.3,44.6,41,29.83,10.0,South,10.4,21.9,N/A,,Clear,190,2013-09-30 17:15:00
12:35 PM,70.9,42.8,36,29.82,10.0,SSW,13.8,24.2,N/A,,Clear,210,2013-09-30 17:35:00
12:55 PM,71.1,41.5,34,29.81,10.0,South,15.0,24.2,N/A,,Clear,190,2013-09-30 17:55:00
1:15 PM,73.0,41.5,32,29.81,10.0,SSW,11.5,27.6,N/A,,Clear,200,2013-09-30 18:15:00
1:35 PM,72.5,40.8,32,29.80,10.0,South,13.8,23.0,N/A,,Clear,190,2013-09-30 18:35:00
1:55 PM,73.4,42.1,32,29.79,10.0,South,10.4,18.4,N/A,,Clear,180,2013-09-30 18:55:00
2:15 PM,72.3,41.4,33,29.78,10.0,SSW,10.4,20.7,N/A,,Clear,200,2013-09-30 19:15:00
2:35 PM,73.4,41.7,32,29.77,10.0,South,15.0,20.7,N/A,,Clear,190,2013-09-30 19:35:00
2:55 PM,73.2,41.7,32,29.76,10.0,South,10.4,20.7,N/A,,Clear,190,2013-09-30 19:55:00
3:15 PM,73.6,40.8,31,29.76,10.0,South,12.7,26.5,N/A,,Clear,190,2013-09-30 20:15:00
3:35 PM,73.8,41.7,32,29.76,10.0,SSW,9.2,19.6,N/A,,Clear,200,2013-09-30 20:35:00
3:55 PM,73.8,41.9,32,29.76,10.0,South,11.5,17.3,N/A,,Clear,170,2013-09-30 20:55:00
4:15 PM,74.3,42.4,32,29.75,10.0,South,16.1,23.0,N/A,,Clear,190,2013-09-30 21:15:00
4:35 PM,73.6,42.1,32,29.75,10.0,SSW,13.8,19.6,N/A,,Clear,200,2013-09-30 21:35:00
4:55 PM,73.4,42.3,33,29.74,10.0,South,10.4,20.7,N/A,,Clear,180,2013-09-30 21:55:00
5:15 PM,73.0,41.9,33,29.73,10.0,SSW,12.7,17.3,N/A,,Clear,200,2013-09-30 22:15:00
5:35 PM,72.5,42.1,33,29.74,10.0,SSW,10.4,17.3,N/A,,Clear,200,2013-09-30 22:35:00
5:55 PM,71.6,42.3,35,29.73,10.0,SSW,10.4,16.1,N/A,,Clear,200,2013-09-30 22:55:00
6:15 PM,70.5,43.0,37,29.73,10.0,South,8.1,-,N/A,,Clear,180,2013-09-30 23:15:00
6:35 PM,69.1,43.3,39,29.73,10.0,South,6.9,-,N/A,,Clear,180,2013-09-30 23:35:00
6:55 PM,67.3,43.9,43,29.73,10.0,South,4.6,-,N/A,,Clear,170,2013-09-30 23:55:00
7:15 PM,65.3,44.6,47,29.74,10.0,SSE,3.5,-,N/A,,Clear,160,2013-10-01 00:15:00
7:35 PM,62.4,45.5,54,29.74,10.0,Calm,Calm,-,N/A,,Clear,0,2013-10-01 00:35:00
7:55 PM,61.0,45.7,57,29.74,10.0,Calm,Calm,-,N/A,,Clear,0,2013-10-01 00:55:00
8:15 PM,57.4,45.7,65,29.75,10.0,South,3.5,-,N/A,,Clear,170,2013-10-01 01:15:00
8:35 PM,56.5,45.9,68,29.75,10.0,South,3.5,-,N/A,,Clear,170,2013-10-01 01:35:00
8:55 PM,55.9,46.4,70,29.76,10.0,SSE,4.6,-,N/A,,Clear,150,2013-10-01 01:55:00
9:15 PM,56.7,45.9,67,29.76,10.0,SSE,4.6,-,N/A,,Clear,160,2013-10-01 02:15:00
9:35 PM,57.0,46.0,67,29.76,10.0,South,4.6,-,N/A,,Clear,170,2013-10-01 02:35:00
9:55 PM,56.1,46.0,69,29.76,10.0,SSE,4.6,-,N/A,,Clear,160,2013-10-01 02:55:00
10:15 PM,55.6,46.4,71,29.76,10.0,SSE,4.6,-,N/A,,Clear,150,2013-10-01 03:15:00
10:35 PM,55.0,46.4,73,29.76,10.0,SSE,3.5,-,N/A,,Clear,160,2013-10-01 03:35:00
10:55 PM,54.3,46.6,75,29.76,10.0,SSE,3.5,-,N/A,,Clear,160,2013-10-01 03:55:00
11:15 PM,54.3,46.6,75,29.76,10.0,SSE,4.6,-,N/A,,Clear,160,2013-10-01 04:15:00
11:35 PM,55.9,47.1,72,29.76,10.0,SSE,4.6,-,N/A,,Clear,160,2013-10-01 04:35:00
11:55 PM,58.1,47.8,69,29.76,10.0,South,4.6,-,N/A,,Clear,170,2013-10-01 04:55:00